Change the Weather History Date:

Sunday, September 8, 2013

  Actual Average Record
Temperature  
Mean Temperature 81 °F 83 °F  
Max Temperature 88 °F 90 °F 96 °F (1942)
Min Temperature 73 °F 76 °F 66 °F (1997)
Degree Days  
Heating Degree Days 0 0  
Month to date heating degree days 0 0  
Since 1 July heating degree days 0 0  
Cooling Degree Days 16 18  
Month to date cooling degree days 140 144  
Year to date cooling degree days 2835 2801  
Growing Degree Days 30 (Base 50)    
Moisture  
Dew Point 73 °F    
Average Humidity 80    
Maximum Humidity 100    
Minimum Humidity 59    
Precipitation  
Precipitation 0.01 in 0.24 in 4.32 in (1955)
Month to date precipitation 3.95 1.94  
Year to date precipitation 39.96 38.46  
Snow  
Snow 0.00 in - - ()
Month to date snowfall 0.0  
Since 1 July snowfall 0.0  
Since 1 September snowfall 0.0  
Snow Depth 0.00 in    
Sea Level Pressure  
Sea Level Pressure 29.92 in    
Wind  
Wind Speed 6 mph (NE)    
Max Wind Speed 21 mph    
Max Gust Speed 28 mph    
Visibility 10 miles    
Events      
T = Trace of Precipitation, MM = Missing Value Source: NWS Daily Summary

Daily Weather History Graph

Daily Weather History Graph

Search for Another Location

Airport or City:

Trip Planner

Search our weather history database for the weather conditions in past years. The results will help you decide how hot, cold, wet, or windy it might be!

Date:

Astronomy

Sep. 08, 2013 Rise Set
Actual Time 7:10 AM EDT 7:38 PM EDT
Civil Twilight 6:46 AM EDT 8:02 PM EDT
Nautical Twilight 6:19 AM EDT 8:29 PM EDT
Astronomical Twilight 5:52 AM EDT 8:56 PM EDT
Moon 10:02 AM EDT (9/8) 9:39 PM EDT (9/8)
Length of Visible Light 13h 15m
Length of Day
12h 28m
Waxing Crescent, 11% of the Moon is Illuminated
Sep 8
Waxing Crescent
Sep 12
First Quarter
Sep 19
Full
Sep 26
Last Quarter
Oct 4
New

Hourly Weather History & Observations

Time (EDT) Temp. Heat Index Dew Point Humidity Pressure Visibility Wind Dir Wind Speed Gust Speed Precip Events Conditions
12:53 AM 73.9 °F - 73.0 °F 97% 29.94 in 10.0 mi NE 3.5 mph - N/A   Partly Cloudy
1:53 AM 73.9 °F - 73.0 °F 97% 29.93 in 10.0 mi NNE 3.5 mph - N/A   Clear
2:53 AM 73.9 °F - 73.0 °F 97% 29.91 in 10.0 mi ENE 5.8 mph - N/A   Clear
3:53 AM 73.9 °F - 73.0 °F 97% 29.92 in 10.0 mi NE 5.8 mph - N/A   Clear
4:53 AM 73.0 °F - 72.0 °F 96% 29.91 in 10.0 mi Calm Calm - N/A   Clear
5:53 AM 73.0 °F - 72.0 °F 96% 29.91 in 10.0 mi ENE 4.6 mph - N/A   Clear
6:53 AM 73.0 °F - 72.0 °F 96% 29.92 in 10.0 mi ENE 3.5 mph - N/A   Clear
7:53 AM 73.9 °F - 72.0 °F 93% 29.93 in 10.0 mi NE 5.8 mph - N/A   Clear
8:53 AM 78.1 °F - 73.0 °F 84% 29.94 in 10.0 mi ENE 9.2 mph - N/A   Clear
9:53 AM 82.0 °F 88.6 °F 75.0 °F 79% 29.95 in 10.0 mi NE 4.6 mph - N/A   Clear
10:53 AM 84.0 °F 91.9 °F 75.0 °F 74% 29.95 in 10.0 mi NE 6.9 mph - N/A   Clear
11:53 AM 86.0 °F 93.0 °F 73.0 °F 65% 29.94 in 10.0 mi Calm Calm - N/A   Scattered Clouds
12:53 PM 87.1 °F 93.6 °F 72.0 °F 61% 29.93 in 10.0 mi NNE 4.6 mph - N/A   Mostly Cloudy
1:53 PM 87.1 °F 95.4 °F 73.9 °F 65% 29.91 in 10.0 mi West 11.5 mph - N/A   Scattered Clouds
2:53 PM 88.0 °F 96.5 °F 73.9 °F 63% 29.89 in 10.0 mi WNW 9.2 mph - N/A   Mostly Cloudy
3:53 PM 87.1 °F 94.5 °F 73.0 °F 63% 29.87 in 10.0 mi WNW 9.2 mph - N/A   Partly Cloudy
4:53 PM 87.1 °F 94.5 °F 73.0 °F 63% 29.86 in 10.0 mi West 11.5 mph - N/A   Overcast
5:53 PM 87.1 °F 95.4 °F 73.9 °F 65% 29.86 in 10.0 mi NNW 8.1 mph - N/A   Overcast
6:53 PM 86.0 °F 92.2 °F 72.0 °F 63% 29.87 in 10.0 mi North 3.5 mph - N/A   Scattered Clouds
7:16 PM 78.8 °F - 71.6 °F 78% 29.90 in 10.0 mi East 12.7 mph - N/A   Mostly Cloudy
7:53 PM 73.0 °F - 70.0 °F 90% 29.91 in 10.0 mi SE 10.4 mph - 0.01 in   Scattered Clouds
8:53 PM 75.0 °F - 70.0 °F 84% 29.92 in 10.0 mi Calm Calm - N/A   Clear
9:53 PM 75.0 °F - 71.1 °F 87% 29.94 in 10.0 mi NE 4.6 mph - N/A   Clear
10:53 PM 73.9 °F - 72.0 °F 93% 29.95 in 10.0 mi ESE 3.5 mph - N/A   Clear
11:53 PM 75.0 °F - 72.0 °F 90% 29.96 in 10.0 mi NE 3.5 mph - N/A   Overcast